RH
72 67 64 78 96 98 82 64 30 38 39 31 31 40 47 44 53 89 62 60 63 73 78 75 81 77 76 75 74 73 72 73 76 78 78 76 76 79 80 77 77 77 78 75 75 75 72 73 75
64 54 72 92 96 94 79 51 39 42 43 43 37 42 51 63 51 59 64 57 62 70 73 78 82 79 75 78 76 74 72 72 72 75 76 74 75 78 76 75 75 77 77 75 75 74 75 73 73
63 51 96 99 97 84 87 57 33 37 41 37 38 35 44 60 48 51 50 57 60 64 71 76 81 79 77 76 76 76 75 72 74 72 73 74 73 75 74 76 75 75 74 74 72 71 70 69 71
63 82 94 100 92 59 53 36 30 41 33 34 38 48 41 39 46 45 45 46 62 72 76 80 79 74 76 75 75 75 74 72 72 72 72 72 73 73 73 73 75 73 73 73 73 73 71 72 73
66 90 97 97 72 50 35 31 36 38 38 37 39 51 47 40 38 39 43 57 67 78 79 77 81 78 76 75 74 74 74 70 74 73 73 73 72 72 73 72 72 72 71 72 73 73 72 71 71
83 88 87 82 59 46 48 39 42 42 38 37 45 48 45 35 37 40 44 57 66 72 76 74 78 79 77 75 73 73 73 72 74 75 73 74 74 74 75 71 71 71 71 72 73 74 73 71 69
84 91 86 72 62 58 55 48 53 40 38 41 40 52 45 38 36 41 48 54 57 66 73 80 81 73 74 75 74 74 74 74 74 73 73 75 73 72 73 72 71 71 70 71 72 74 73 71 68
63 86 72 75 69 69 54 58 50 50 48 32 36 52 51 41 40 42 44 48 57 66 71 78 83 84 85 82 74 74 74 74 73 72 72 73 70 70 72 78 75 70 69 70 73 73 71 69 70
68 95 91 71 64 66 58 61 55 66 40 39 34 38 36 37 37 44 52 52 56 62 74 74 77 81 85 82 75 76 74 74 74 76 70 80 84 77 78 75 73 70 69 69 71 72 70 68 68
73 94 89 65 54 66 60 57 58 52 45 46 38 34 32 38 46 53 55 61 61 63 62 68 82 72 73 63 89 90 86 85 91 85 84 89 85 84 75 74 70 68 69 68 69 70 70 71 78
57 86 68 62 58 55 52 61 61 63 54 42 42 38 34 42 50 53 53 53 55 59 74 72 73 80 90 94 94 96 88 86 89 85 90 86 78 84 85 88 80 83 73 75 75 79 80 77 78
60 56 66 48 52 48 60 59 80 72 86 41 35 33 33 43 44 50 46 58 63 67 69 74 70 94 89 90 96 96 95 88 83 81 87 79 74 85 84 87 91 84 84 81 82 83 80 66 64
38 43 70 44 60 71 56 68 83 74 63 35 32 32 35 36 34 41 50 57 64 70 69 83 93 92 84 88 95 97 95 79 74 77 77 76 80 80 81 81 77 84 80 87 77 84 80 70 50
25 54 84 48 57 58 67 74 62 72 63 36 33 35 34 34 31 42 58 61 65 62 64 78 92 91 90 94 96 97 96 96 75 72 68 76 73 76 69 78 73 76 72 82 89 81 81 74 60
28 39 55 47 50 54 58 71 70 71 60 45 34 34 34 33 36 39 54 63 60 62 62 70 83 80 86 90 91 91 95 92 82 76 70 71 70 81 71 80 72 80 76 68 78 86 80 80 61
18 45 84 58 48 52 54 90 74 75 75 80 44 34 33 32 38 39 42 45 48 53 57 58 53 72 84 96 96 91 92 94 97 79 74 72 75 72 78 77 74 74 73 75 80 72 80 73 74
24 32 52 51 46 54 59 89 77 72 80 86 50 36 33 32 41 40 39 44 53 55 59 62 61 66 76 95 95 93 91 94 96 89 92 71 70 74 84 84 84 79 78 76 73 85 75 75 57
32 35 58 55 50 53 74 83 71 74 84 85 48 36 34 32 40 39 40 42 52 57 57 64 62 74 68 83 96 98 98 93 97 93 87 79 85 82 82 88 79 83 82 80 83 76 76 67 57
18 27 39 39 48 67 79 88 69 78 87 86 46 40 37 35 39 37 37 44 51 58 58 75 72 84 77 82 90 94 94 97 95 91 82 77 84 79 83 86 84 79 79 79 69 79 78 75 73
15 22 62 71 66 72 80 89 80 80 83 85 68 41 38 43 41 37 39 46 50 61 66 78 82 81 74 85 84 88 95 93 90 90 84 82 81 81 80 84 80 85 84 78 75 80 83 83 68
16 21 59 64 68 87 74 86 87 79 82 88 76 60 36 44 42 39 39 48 52 61 72 80 82 81 84 87 87 95 94 94 93 89 91 84 74 73 82 82 84 77 86 82 78 76 80 83 73
19 20 53 64 72 90 62 98 89 79 80 84 81 83 57 48 36 37 41 49 52 58 64 81 82 81 82 83 86 73 94 91 95 88 80 85 76 79 70 76 76 84 85 85 83 76 87 87 85
15 35 49 53 69 63 63 86 84 78 81 81 85 82 68 48 44 48 38 43 50 53 60 77 82 85 78 84 89 94 92 92 93 95 88 87 82 79 70 75 79 86 91 84 80 82 83 90 88
12 15 35 63 87 94 65 64 98 91 82 84 77 70 72 53 46 43 35 36 48 49 58 70 82 89 86 83 83 90 74 79 92 92 93 91 90 83 80 74 79 84 85 82 83 80 80 86 88
18 26 44 50 94 68 48 60 82 86 78 88 81 78 75 65 44 49 48 40 45 50 58 65 85 92 86 86 84 88 86 88 93 89 91 91 90 92 86 85 86 88 85 82 85 85 81 82 85
28 25 47 60 42 32 37 92 98 74 82 87 90 91 80 80 80 77 76 62 59 48 58 63 81 86 89 85 88 91 92 94 76 86 93 94 94 90 83 88 85 85 84 84 82 82 86 86 83
28 34 22 44 31 36 90 85 75 72 78 77 87 91 91 88 87 86 89 86 67 69 59 65 74 81 86 86 92 90 95 92 84 82 86 94 94 89 92 87 86 87 81 83 87 88 84 86 87
30 24 32 34 46 48 90 78 88 86 79 77 80 84 91 90 89 91 96 95 92 90 91 93 93 95 86 80 89 91 91 90 90 88 88 95 91 92 89 84 84 85 84 84 82 86 86 88 81
26 30 36 30 36 38 86 98 79 81 80 80 80 76 76 86 92 93 94 96 95 93 93 94 94 93 90 94 95 89 91 90 89 88 88 86 93 92 82 85 75 83 80 80 87 87 79 84 88
20 22 28 41 38 45 76 99 87 76 76 79 77 72 69 77 84 91 92 94 97 96 96 96 97 95 94 93 95 93 90 90 91 91 84 88 92 95 89 82 76 81 87 83 83 83 74 83 81
Wind_Speed
10 8 4 1 2 2 4 4 18 19 13 14 12 14 9 11 4 5 15 18 18 14 11 11 14 15 14 13 13 12 13 13 13 14 15 15 14 15 15 15 16 16 16 17 16 14 15 14 15
6 8 1 1 1 4 2 2 16 22 20 15 21 23 22 16 18 20 17 21 18 15 10 9 14 13 13 13 13 12 13 13 13 12 14 14 14 14 15 16 16 15 15 16 16 14 14 12 13
3 8 2 1 1 2 4 4 14 19 20 17 16 14 8 21 20 10 21 23 19 15 11 11 15 13 13 13 14 13 12 13 13 14 12 14 13 13 14 17 16 15 15 15 15 12 12 11 11
4 1 3 2 9 2 7 11 16 24 24 26 24 20 18 21 16 21 24 21 18 15 12 13 15 14 14 13 14 13 12 13 12 13 13 13 12 14 14 15 15 14 14 14 14 11 10 9 8
4 1 3 2 6 5 8 9 18 22 19 23 25 25 23 21 25 25 23 21 19 15 12 11 14 14 14 13 13 13 13 13 11 13 14 13 14 13 15 15 14 13 13 14 12 11 9 7 5
1 3 0 5 8 8 7 14 21 20 20 20 26 24 17 20 23 23 21 20 18 16 12 10 14 14 14 15 13 13 13 13 12 14 14 15 14 14 14 14 13 13 14 14 12 11 7 5 2
1 2 3 6 9 15 7 11 10 20 22 16 23 26 13 16 18 23 22 20 18 16 13 9 8 11 12 14 14 13 14 12 13 14 14 14 15 14 14 14 12 15 14 12 10 9 7 5 1
2 4 3 0 4 4 7 7 9 14 8 21 24 16 16 13 21 19 20 20 17 15 14 11 8 7 6 6 12 13 13 13 13 13 13 14 14 15 14 11 11 13 12 10 9 7 5 4 4
5 4 8 3 9 2 4 10 4 9 19 17 10 16 17 24 24 17 16 18 14 12 12 11 9 8 7 6 8 9 11 12 13 12 13 10 5 6 8 9 10 11 10 8 6 4 1 2 5
5 4 4 8 2 9 6 9 9 6 11 12 22 17 17 20 22 14 15 12 12 13 14 12 8 9 10 8 6 5 6 3 5 5 4 3 3 5 7 7 8 8 8 6 4 3 4 4 3
8 7 16 21 8 11 12 10 4 8 12 24 25 22 16 25 18 20 14 18 19 13 8 12 10 6 6 5 3 2 2 3 3 6 5 4 5 4 3 2 2 1 5 1 4 4 3 5 5
10 15 8 10 12 13 9 6 7 11 2 8 21 18 14 25 20 19 14 15 16 11 9 6 11 9 3 4 2 1 3 3 3 4 6 5 4 4 4 3 5 3 2 2 2 2 4 7 8
8 12 13 16 18 10 14 9 8 10 6 16 19 17 11 9 18 18 17 18 18 15 10 7 14 6 2 3 2 4 2 1 5 4 6 4 3 4 4 4 3 3 1 2 4 3 3 5 6
7 17 5 18 17 14 16 12 4 9 11 16 19 15 11 9 14 19 20 16 11 14 14 11 15 9 7 2 3 3 2 3 1 4 4 6 4 5 4 4 4 3 3 4 3 3 2 4 2
11 7 8 16 17 16 18 6 6 6 4 8 16 14 11 9 16 19 18 15 16 13 15 11 18 11 8 6 8 5 2 3 4 4 5 6 4 4 5 3 4 4 3 4 5 3 3 3 2
7 10 8 7 17 14 6 6 5 2 7 3 13 15 12 7 21 15 12 11 16 15 13 12 13 18 16 9 3 1 3 1 4 1 4 6 5 5 5 3 4 4 2 3 1 3 2 4 4
7 8 10 15 15 11 7 7 8 4 6 11 18 14 11 10 18 16 14 9 15 13 11 7 13 9 10 12 6 4 4 2 4 2 3 5 3 5 5 1 1 4 2 3 2 1 2 2 1
7 7 7 15 14 11 9 6 13 7 9 21 17 13 10 13 16 17 15 10 15 10 9 8 8 8 8 10 6 3 3 4 4 4 3 4 2 5 3 2 2 3 3 1 1 2 2 2 1
12 10 10 11 10 11 6 8 11 6 6 13 12 9 9 12 11 15 14 14 13 9 8 8 9 7 5 3 5 5 4 3 2 2 5 5 4 4 3 3 1 3 3 2 1 1 2 3 0
15 3 8 11 7 13 13 6 4 8 6 11 10 11 12 9 11 12 14 14 12 10 8 9 8 8 5 3 2 3 4 3 3 3 4 5 5 6 5 3 3 4 2 1 2 2 3 2 1
12 7 17 8 8 9 10 5 2 2 5 9 15 11 16 12 12 12 14 16 14 12 9 10 8 8 5 6 5 3 4 1 3 2 3 4 6 5 5 5 5 4 2 1 2 1 3 1 3
9 1 25 24 13 8 14 4 5 6 2 5 13 11 5 13 14 11 11 15 15 13 12 10 8 7 4 5 4 5 4 3 0 2 3 4 7 4 4 4 5 4 3 1 2 1 2 3 4
10 22 24 12 6 6 16 4 4 9 8 8 12 15 14 12 14 8 14 17 17 16 13 12 10 6 5 3 6 6 5 3 2 2 6 3 3 5 6 5 6 3 3 1 2 2 4 3 3
9 5 14 5 6 4 14 7 4 10 7 6 15 15 18 14 16 10 14 16 16 14 12 11 12 7 7 7 5 7 6 6 4 1 3 4 3 3 4 6 5 4 1 1 1 2 4 3 3
7 3 2 2 4 13 18 6 2 16 16 13 14 24 13 8 17 8 10 12 18 17 15 13 12 7 7 7 6 7 7 3 6 6 4 4 2 1 4 3 4 4 3 2 2 3 1 1 2
5 8 6 5 7 6 9 6 7 17 16 18 16 6 9 1 8 5 10 2 10 16 16 15 13 12 8 6 7 7 8 5 4 5 3 4 3 2 3 5 5 5 5 4 4 2 2 2 1
6 5 10 3 6 3 5 9 9 11 10 9 6 12 11 10 9 4 9 9 2 8 12 13 14 12 12 9 6 7 8 7 6 7 5 4 5 3 1 0 6 5 5 4 4 2 1 2 2
3 4 6 3 2 2 4 6 7 12 10 9 8 11 12 4 11 12 10 9 8 8 11 12 9 8 2 9 7 6 7 7 6 5 6 9 6 6 5 4 2 5 6 6 5 2 2 1 3
1 5 2 1 1 5 5 3 3 10 8 11 10 8 8 9 10 9 9 6 8 5 15 12 12 12 11 9 13 7 7 7 5 4 4 11 6 6 6 6 5 5 6 5 5 4 2 4 4
5 7 4 5 8 3 5 3 3 11 10 10 9 9 6 11 12 9 8 9 7 8 9 7 6 9 5 4 11 13 7 7 7 7 6 12 8 4 6 5 7 6 6 6 6 5 4 5 5
Wind_Direction
169 177 196 291 27 308 226 258 97 90 88 73 95 102 113 129 136 149 146 126 127 127 134 125 118 117 114 114 111 105 100 97 95 91 95 96 94 94 93 94 93 95 92 97 98 99 99 106 103
183 194 189 221 67 228 235 335 84 95 97 89 89 86 78 82 104 118 119 131 127 133 126 128 124 119 119 117 111 109 103 101 101 99 100 97 94 95 93 98 92 92 91 97 101 98 99 99 97
264 258 101 336 155 163 114 294 95 84 93 87 94 81 81 114 123 105 129 128 138 129 126 134 125 123 123 117 113 108 111 106 110 112 106 108 105 102 97 96 97 94 95 94 96 97 96 97 92
190 249 93 253 214 183 165 126 115 101 96 99 109 93 114 111 107 126 133 132 116 119 124 130 127 126 115 117 111 116 111 107 105 110 111 110 110 101 102 100 99 95 97 104 98 96 93 88 80
226 154 128 131 151 106 115 132 89 93 99 103 104 113 109 117 125 133 128 123 121 118 128 133 130 124 119 117 112 112 116 113 114 114 113 118 112 114 108 103 100 99 104 109 112 101 88 81 57
223 240 93 109 122 110 72 74 91 96 110 107 105 114 119 131 132 130 127 122 124 131 129 129 128 126 124 123 119 120 118 115 111 113 114 114 113 110 112 107 105 106 114 117 118 113 110 103 113
211 48 322 113 95 100 89 55 42 115 117 107 121 121 135 145 133 126 127 130 132 132 126 131 119 125 126 120 123 123 123 121 121 118 119 115 116 119 112 111 109 109 116 119 119 130 142 155 174
199 16 2 48 130 118 56 88 69 100 119 121 128 138 149 132 129 131 134 129 132 135 138 135 132 124 120 120 126 130 129 129 128 126 126 126 122 119 118 113 115 120 121 123 129 140 154 178 196
84 69 329 296 156 156 78 104 79 323 144 135 137 142 145 132 128 124 125 126 136 138 137 138 146 139 133 126 137 134 132 140 140 134 135 132 130 123 110 128 122 118 119 121 122 121 124 278 282
107 88 310 264 302 150 139 113 116 151 150 128 134 142 148 124 122 124 132 133 138 146 146 137 137 141 147 139 144 149 150 159 146 143 160 154 135 136 130 141 129 130 124 132 153 183 215 254 262
144 141 239 271 197 135 146 76 29 152 124 144 142 151 166 135 140 138 158 140 142 129 113 129 137 139 81 109 150 158 163 182 188 165 148 174 121 117 130 133 98 137 138 172 220 223 295 270 274
142 181 192 153 142 132 110 96 60 72 170 174 141 159 169 144 156 153 151 121 119 117 126 124 118 103 85 71 83 284 185 176 175 170 158 141 153 135 154 167 173 180 167 150 104 139 231 254 249
190 161 180 139 109 68 112 110 117 101 241 147 146 168 171 167 156 140 124 131 127 133 134 124 104 101 345 33 347 19 324 117 176 159 171 138 146 156 166 197 165 144 137 135 61 37 309 349 47
90 122 192 139 130 135 117 119 122 183 245 158 162 170 177 168 141 129 132 138 141 143 134 140 135 169 160 168 257 220 67 359 226 133 180 147 157 149 151 99 151 153 155 112 177 104 344 354 69
140 116 171 147 136 126 119 131 143 182 308 183 170 170 183 176 126 134 142 145 134 146 149 146 138 149 165 174 189 165 113 34 322 135 83 141 130 114 111 99 128 142 176 133 121 256 328 323 10
259 118 133 190 145 146 155 158 185 223 56 244 214 183 182 175 132 133 130 134 133 136 138 146 142 159 157 157 160 189 160 147 282 91 117 106 122 116 79 82 160 140 77 65 17 45 19 261 220
262 216 149 163 161 159 188 140 204 179 90 193 214 190 179 145 133 137 139 137 122 136 147 140 140 147 136 151 167 183 185 201 247 104 122 120 128 85 77 109 89 85 101 150 152 78 166 352 189
238 223 140 167 164 148 131 165 175 147 131 194 212 188 170 149 137 142 142 134 128 140 142 140 142 145 149 140 149 174 172 172 125 120 134 143 135 101 101 107 82 84 116 263 106 52 325 237 241
256 221 151 137 151 110 140 151 176 106 79 275 214 173 157 149 135 144 139 130 134 141 136 128 130 140 132 139 146 156 167 140 199 136 180 148 157 144 152 133 172 103 145 164 26 25 360 329 190
259 269 63 57 49 36 128 128 169 160 156 253 305 167 157 139 140 148 143 140 144 145 136 126 131 141 172 113 174 127 92 125 156 174 172 150 157 172 185 174 191 168 204 151 44 39 353 342 292
246 225 155 187 89 69 121 79 189 173 147 283 287 301 167 161 158 156 155 148 148 148 144 138 152 163 155 130 102 69 62 34 66 98 134 167 157 188 160 161 173 150 196 174 230 74 60 348 326
245 162 119 135 119 157 234 171 238 192 238 266 294 332 184 152 155 159 158 150 154 159 150 139 158 179 148 148 125 134 137 141 1 160 165 169 165 171 141 131 110 112 89 43 304 15 85 75 13
248 137 141 144 137 115 212 124 219 151 176 218 261 288 283 169 169 183 164 160 162 159 160 146 160 169 160 165 148 133 133 117 133 30 151 156 164 171 168 136 122 119 105 163 2 39 68 64 63
278 219 148 118 86 270 212 144 203 166 183 170 253 248 251 182 184 197 181 164 162 158 154 153 157 174 176 155 147 134 160 156 107 183 168 158 188 211 179 152 150 143 73 249 278 79 64 53 54
271 205 233 119 127 242 189 176 155 141 144 155 254 268 253 237 175 202 182 159 163 163 162 161 159 168 174 167 155 142 151 162 182 182 187 169 132 85 213 164 158 153 170 253 269 102 69 342 73
264 191 167 135 245 244 142 122 143 131 144 153 161 300 1 270 38 23 3 87 169 167 165 166 167 163 166 185 173 144 145 156 193 194 192 161 174 135 291 179 164 189 177 182 219 157 201 309 334
300 235 223 281 276 98 119 86 103 133 139 145 138 116 46 22 16 28 29 19 291 145 166 170 170 176 164 175 186 175 164 171 199 216 194 165 138 147 30 87 173 208 203 189 188 226 279 316 268
56 296 0 338 290 32 128 141 139 162 146 109 82 65 91 26 48 70 57 34 345 88 87 66 62 26 251 171 173 190 181 195 210 206 163 131 164 169 204 165 233 223 214 178 170 234 281 256 271
297 314 312 114 143 176 155 103 294 121 113 111 92 79 79 75 80 80 73 51 344 56 80 85 77 52 22 10 332 194 194 201 226 233 152 154 174 172 189 198 201 227 200 171 167 192 224 217 226
254 266 244 129 289 75 104 111 354 110 109 108 108 109 96 104 106 100 93 86 56 53 89 83 84 62 21 335 318 273 189 185 203 214 211 150 169 193 199 217 219 204 226 184 190 201 209 205 221